Boscobel, WI

12:35 AM CDT on September 25, 2016 (GMT -0500)
Boscobel

Weather History for KOVS - July, 2014

Change the Weather History Date:

Thursday, July 3, 2014

  Actual Average (KPDC) Record (KPDC)
Temperature  
Mean Temperature 62 °F -  
Max Temperature 78 °F 85 °F 98 °F (1948)
Min Temperature 50 °F 60 °F 45 °F (1968)
Degree Days  
Heating Degree Days 2    
Growing Degree Days 12 (Base 50)    
Moisture  
Dew Point 50 °F    
Average Humidity 78    
Maximum Humidity 97    
Minimum Humidity 33    
Precipitation  
Precipitation 0.00 in - - ()
Sea Level Pressure  
Sea Level Pressure 30.02 in    
Wind  
Wind Speed 1 mph (WNW)    
Max Wind Speed 8 mph    
Max Gust Speed -    
Visibility 5 miles    
Events Fog    
Averages and records for this station are not official NWS values.
T = Trace of Precipitation, MM = Missing Value Source: NWS Daily Summary

Daily Weather History Graph

Daily Weather History Graph

Search for Another Location

Airport or City:

Trip Planner

Search our weather history database for the weather conditions in past years. The results will help you decide how hot, cold, wet, or windy it might be!

Date:

Astronomy

Jul. 03, 2014 Rise Set
Actual Time 5:27 AM CDT 8:45 PM CDT
Civil Twilight 4:52 AM CDT 9:20 PM CDT
Nautical Twilight 4:07 AM CDT 10:06 PM CDT
Astronomical Twilight 3:10 AM CDT 11:02 PM CDT
Moon 11:37 AM CDT (7/3) 11:57 PM CDT (7/3)
Length of Visible Light 16h 28m
Length of Day
15h 17m
Waxing Crescent, 33% of the Moon is Illuminated
Jul 3
Waxing Crescent
Jul 5
First Quarter
Jul 12
Full
Jul 18
Last Quarter
Jul 26
New

Hourly Weather History & Observations

Time (CDT) Temp. Dew Point Humidity Pressure Visibility Wind Dir Wind Speed Gust Speed Precip Events Conditions
12:03 AM 53.1 °F 52.0 °F 96% 30.06 in 1.8 mi Calm Calm - N/A   Clear
12:11 AM 54.0 °F 52.0 °F 93% 30.06 in 1.0 mi Calm Calm - N/A   Clear
12:14 AM 54.0 °F 51.1 °F 90% 30.06 in 2.0 mi Calm Calm - N/A   Clear
12:21 AM 54.0 °F 52.0 °F 93% 30.06 in 6.0 mi Calm Calm - N/A   Clear
12:53 AM 54.0 °F 52.0 °F 93% 30.07 in 10.0 mi Calm Calm - N/A   Clear
1:04 AM 52.0 °F 50.0 °F 93% 30.07 in 1.5 mi Calm Calm - N/A   Clear
1:12 AM 52.0 °F 50.0 °F 93% 30.07 in 0.5 mi Calm Calm - N/A Fog Fog
1:17 AM 52.0 °F 50.0 °F 93% 30.07 in 1.2 mi Calm Calm - N/A   Clear
1:31 AM 51.1 °F 50.0 °F 96% 30.07 in 0.8 mi Calm Calm - N/A   Mist
1:53 AM 51.1 °F 48.9 °F 92% 30.08 in 0.8 mi Calm Calm - N/A   Mist
2:00 AM 51.1 °F 48.9 °F 92% 30.07 in 1.2 mi Calm Calm - N/A   Partly Cloudy
2:18 AM 51.1 °F 48.9 °F 92% 30.07 in 3.0 mi Calm Calm - N/A   Partly Cloudy
2:36 AM 50.0 °F 48.0 °F 93% 30.08 in 1.8 mi Calm Calm - N/A   Scattered Clouds
2:49 AM 51.8 °F 48.2 °F 88% 30.08 in 3.0 mi Calm Calm - N/A   Mostly Cloudy
2:53 AM 50.0 °F 48.0 °F 93% 30.09 in 1.0 mi Calm Calm - N/A   Mist
3:00 AM 52.0 °F 50.0 °F 93% 30.09 in 0.2 mi Calm Calm - N/A Fog Fog
3:53 AM 53.1 °F 52.0 °F 96% 30.10 in 0.2 mi South 4.6 mph - N/A Fog Fog
4:53 AM 54.0 °F 52.0 °F 93% 30.11 in 0.2 mi Calm Calm - N/A Fog Fog
5:53 AM 53.1 °F 52.0 °F 96% 30.13 in 0.2 mi Calm Calm - N/A Fog Fog
6:53 AM 54.0 °F 53.1 °F 97% 30.15 in 0.2 mi Calm Calm - N/A Fog Fog
7:45 AM 55.0 °F 53.1 °F 93% 30.16 in 1.2 mi Calm Calm - N/A   Mostly Cloudy
7:51 AM 55.4 °F 53.6 °F 94% 30.16 in 3.0 mi Calm Calm - N/A   Mostly Cloudy
7:53 AM 55.9 °F 55.0 °F 97% 30.17 in 7.0 mi Calm Calm - N/A   Mostly Cloudy
8:13 AM 57.0 °F 55.0 °F 93% 30.16 in 10.0 mi Calm Calm - N/A   Scattered Clouds
9:53 AM 69.1 °F 53.1 °F 57% 30.16 in 10.0 mi Calm Calm - N/A   Clear
10:53 AM 72.0 °F 46.0 °F 40% 29.53 in 10.0 mi Variable 3.5 mph - N/A   Clear
11:53 AM 75.0 °F 44.1 °F 33% 30.17 in 10.0 mi NNE 8.1 mph - N/A   Clear
12:53 PM 75.9 °F 45.0 °F 33% 30.18 in 10.0 mi North - - N/A   Scattered Clouds
2:53 PM 75.9 °F 48.0 °F 37% 30.18 in 10.0 mi Variable 3.5 mph - N/A   Mostly Cloudy
3:53 PM 73.9 °F 46.0 °F 37% 29.53 in 10.0 mi Calm Calm - N/A   Scattered Clouds
4:53 PM 73.9 °F 46.0 °F 37% 29.53 in 10.0 mi NNW 6.9 mph - N/A   Scattered Clouds
5:53 PM 75.0 °F 46.9 °F 37% 29.53 in 10.0 mi West 5.8 mph - N/A   Clear
6:53 PM 75.0 °F 46.9 °F 37% 30.17 in 10.0 mi West 3.5 mph - N/A   Clear
7:53 PM 73.0 °F 50.0 °F 44% 30.18 in 10.0 mi Calm Calm - N/A   Clear
8:53 PM 63.0 °F 54.0 °F 72% 30.19 in 10.0 mi Calm Calm - N/A   Clear
9:53 PM 57.9 °F 54.0 °F 87% 29.53 in 10.0 mi Calm Calm - N/A   Clear
10:53 PM 55.0 °F 52.0 °F 89% 29.53 in 10.0 mi Calm Calm - N/A   Clear
11:53 PM 54.0 °F 51.1 °F 90% 30.22 in 10.0 mi Calm Calm - N/A   Clear